Index of /20260507/WXO-DD/model_gdps/15km/00/138
Name Last modified Size Description
Parent Directory -
20260507T00Z_MSC_GDPS_AbsoluteVorticity_IsbL-0200_LatLon0.15_PT138H.grib2 2026-05-07 04:35 1.2M
20260507T00Z_MSC_GDPS_AbsoluteVorticity_IsbL-0250_LatLon0.15_PT138H.grib2 2026-05-07 04:35 1.3M
20260507T00Z_MSC_GDPS_AbsoluteVorticity_IsbL-0500_LatLon0.15_PT138H.grib2 2026-05-07 04:35 1.2M
20260507T00Z_MSC_GDPS_AbsoluteVorticity_IsbL-0700_LatLon0.15_PT138H.grib2 2026-05-07 04:35 1.3M
20260507T00Z_MSC_GDPS_AbsoluteVorticity_IsbL-0850_LatLon0.15_PT138H.grib2 2026-05-07 04:35 1.6M
20260507T00Z_MSC_GDPS_AirTemp-Max_AGL-2m_LatLon0.15_PT138H.grib2 2026-05-07 04:35 745K
20260507T00Z_MSC_GDPS_AirTemp-Min_AGL-2m_LatLon0.15_PT138H.grib2 2026-05-07 04:35 794K
20260507T00Z_MSC_GDPS_AirTemp_AGL-120m_LatLon0.15_PT138H.grib2 2026-05-07 04:35 912K
20260507T00Z_MSC_GDPS_AirTemp_AGL-2m_LatLon0.15_PT138H.grib2 2026-05-07 04:35 1.0M
20260507T00Z_MSC_GDPS_AirTemp_AGL-40m_LatLon0.15_PT138H.grib2 2026-05-07 04:35 815K
20260507T00Z_MSC_GDPS_AirTemp_AGL-80m_LatLon0.15_PT138H.grib2 2026-05-07 04:35 802K
20260507T00Z_MSC_GDPS_AirTemp_IsbL-0001_LatLon0.15_PT138H.grib2 2026-05-07 04:35 668K
20260507T00Z_MSC_GDPS_AirTemp_IsbL-0005_LatLon0.15_PT138H.grib2 2026-05-07 04:35 698K
20260507T00Z_MSC_GDPS_AirTemp_IsbL-0010_LatLon0.15_PT138H.grib2 2026-05-07 04:35 699K
20260507T00Z_MSC_GDPS_AirTemp_IsbL-0020_LatLon0.15_PT138H.grib2 2026-05-07 04:35 790K
20260507T00Z_MSC_GDPS_AirTemp_IsbL-0030_LatLon0.15_PT138H.grib2 2026-05-07 04:35 836K
20260507T00Z_MSC_GDPS_AirTemp_IsbL-0050_LatLon0.15_PT138H.grib2 2026-05-07 04:35 878K
20260507T00Z_MSC_GDPS_AirTemp_IsbL-0100_LatLon0.15_PT138H.grib2 2026-05-07 04:35 959K
20260507T00Z_MSC_GDPS_AirTemp_IsbL-0150_LatLon0.15_PT138H.grib2 2026-05-07 04:35 966K
20260507T00Z_MSC_GDPS_AirTemp_IsbL-0175_LatLon0.15_PT138H.grib2 2026-05-07 04:35 1.0M
20260507T00Z_MSC_GDPS_AirTemp_IsbL-0200_LatLon0.15_PT138H.grib2 2026-05-07 04:35 1.0M
20260507T00Z_MSC_GDPS_AirTemp_IsbL-0225_LatLon0.15_PT138H.grib2 2026-05-07 04:35 1.0M
20260507T00Z_MSC_GDPS_AirTemp_IsbL-0250_LatLon0.15_PT138H.grib2 2026-05-07 04:35 1.0M
20260507T00Z_MSC_GDPS_AirTemp_IsbL-0275_LatLon0.15_PT138H.grib2 2026-05-07 04:35 1.0M
20260507T00Z_MSC_GDPS_AirTemp_IsbL-0300_LatLon0.15_PT138H.grib2 2026-05-07 04:35 1.0M
20260507T00Z_MSC_GDPS_AirTemp_IsbL-0350_LatLon0.15_PT138H.grib2 2026-05-07 04:35 938K
20260507T00Z_MSC_GDPS_AirTemp_IsbL-0400_LatLon0.15_PT138H.grib2 2026-05-07 04:35 950K
20260507T00Z_MSC_GDPS_AirTemp_IsbL-0450_LatLon0.15_PT138H.grib2 2026-05-07 04:35 1.0M
20260507T00Z_MSC_GDPS_AirTemp_IsbL-0500_LatLon0.15_PT138H.grib2 2026-05-07 04:35 1.0M
20260507T00Z_MSC_GDPS_AirTemp_IsbL-0550_LatLon0.15_PT138H.grib2 2026-05-07 04:35 1.0M
20260507T00Z_MSC_GDPS_AirTemp_IsbL-0600_LatLon0.15_PT138H.grib2 2026-05-07 04:35 904K
20260507T00Z_MSC_GDPS_AirTemp_IsbL-0650_LatLon0.15_PT138H.grib2 2026-05-07 04:35 935K
20260507T00Z_MSC_GDPS_AirTemp_IsbL-0700_LatLon0.15_PT138H.grib2 2026-05-07 04:35 968K
20260507T00Z_MSC_GDPS_AirTemp_IsbL-0750_LatLon0.15_PT138H.grib2 2026-05-07 04:35 1.0M
20260507T00Z_MSC_GDPS_AirTemp_IsbL-0800_LatLon0.15_PT138H.grib2 2026-05-07 04:35 1.1M
20260507T00Z_MSC_GDPS_AirTemp_IsbL-0850_LatLon0.15_PT138H.grib2 2026-05-07 04:35 1.1M
20260507T00Z_MSC_GDPS_AirTemp_IsbL-0875_LatLon0.15_PT138H.grib2 2026-05-07 04:35 1.1M
20260507T00Z_MSC_GDPS_AirTemp_IsbL-0900_LatLon0.15_PT138H.grib2 2026-05-07 04:35 1.1M
20260507T00Z_MSC_GDPS_AirTemp_IsbL-0925_LatLon0.15_PT138H.grib2 2026-05-07 04:35 1.1M
20260507T00Z_MSC_GDPS_AirTemp_IsbL-0950_LatLon0.15_PT138H.grib2 2026-05-07 04:35 1.2M
20260507T00Z_MSC_GDPS_AirTemp_IsbL-0970_LatLon0.15_PT138H.grib2 2026-05-07 04:35 1.2M
20260507T00Z_MSC_GDPS_AirTemp_IsbL-0985_LatLon0.15_PT138H.grib2 2026-05-07 04:35 1.2M
20260507T00Z_MSC_GDPS_AirTemp_IsbL-1000_LatLon0.15_PT138H.grib2 2026-05-07 04:35 1.1M
20260507T00Z_MSC_GDPS_AirTemp_IsbL-1015_LatLon0.15_PT138H.grib2 2026-05-07 04:35 1.1M
20260507T00Z_MSC_GDPS_Albedo_Sfc_LatLon0.15_PT138H.grib2 2026-05-07 04:35 246K
20260507T00Z_MSC_GDPS_CAPE_Sfc_LatLon0.15_PT138H.grib2 2026-05-07 04:35 3.7M
20260507T00Z_MSC_GDPS_CIN_Sfc_LatLon0.15_PT138H.grib2 2026-05-07 04:35 2.8M
20260507T00Z_MSC_GDPS_CloudWater_EAtm_LatLon0.15_PT138H.grib2 2026-05-07 04:35 548K
20260507T00Z_MSC_GDPS_ConvectivePrecip-Accum_Sfc_LatLon0.15_PT138H.grib2 2026-05-07 04:35 3.6M
20260507T00Z_MSC_GDPS_DewPointDepression_AGL-2m_LatLon0.15_PT138H.grib2 2026-05-07 04:35 767K
20260507T00Z_MSC_GDPS_DewPointDepression_IsbL-0010_LatLon0.15_PT138H.grib2 2026-05-07 04:35 88K
20260507T00Z_MSC_GDPS_DewPointDepression_IsbL-0020_LatLon0.15_PT138H.grib2 2026-05-07 04:35 88K
20260507T00Z_MSC_GDPS_DewPointDepression_IsbL-0030_LatLon0.15_PT138H.grib2 2026-05-07 04:35 103K
20260507T00Z_MSC_GDPS_DewPointDepression_IsbL-0050_LatLon0.15_PT138H.grib2 2026-05-07 04:35 370K
20260507T00Z_MSC_GDPS_DewPointDepression_IsbL-0100_LatLon0.15_PT138H.grib2 2026-05-07 04:35 391K
20260507T00Z_MSC_GDPS_DewPointDepression_IsbL-0150_LatLon0.15_PT138H.grib2 2026-05-07 04:35 498K
20260507T00Z_MSC_GDPS_DewPointDepression_IsbL-0175_LatLon0.15_PT138H.grib2 2026-05-07 04:35 597K
20260507T00Z_MSC_GDPS_DewPointDepression_IsbL-0200_LatLon0.15_PT138H.grib2 2026-05-07 04:35 692K
20260507T00Z_MSC_GDPS_DewPointDepression_IsbL-0225_LatLon0.15_PT138H.grib2 2026-05-07 04:35 787K
20260507T00Z_MSC_GDPS_DewPointDepression_IsbL-0250_LatLon0.15_PT138H.grib2 2026-05-07 04:35 887K
20260507T00Z_MSC_GDPS_DewPointDepression_IsbL-0275_LatLon0.15_PT138H.grib2 2026-05-07 04:35 912K
20260507T00Z_MSC_GDPS_DewPointDepression_IsbL-0300_LatLon0.15_PT138H.grib2 2026-05-07 04:35 955K
20260507T00Z_MSC_GDPS_DewPointDepression_IsbL-0350_LatLon0.15_PT138H.grib2 2026-05-07 04:35 1.0M
20260507T00Z_MSC_GDPS_DewPointDepression_IsbL-0400_LatLon0.15_PT138H.grib2 2026-05-07 04:35 1.0M
20260507T00Z_MSC_GDPS_DewPointDepression_IsbL-0450_LatLon0.15_PT138H.grib2 2026-05-07 04:35 1.0M
20260507T00Z_MSC_GDPS_DewPointDepression_IsbL-0500_LatLon0.15_PT138H.grib2 2026-05-07 04:35 1.0M
20260507T00Z_MSC_GDPS_DewPointDepression_IsbL-0550_LatLon0.15_PT138H.grib2 2026-05-07 04:35 1.0M
20260507T00Z_MSC_GDPS_DewPointDepression_IsbL-0600_LatLon0.15_PT138H.grib2 2026-05-07 04:35 1.1M
20260507T00Z_MSC_GDPS_DewPointDepression_IsbL-0650_LatLon0.15_PT138H.grib2 2026-05-07 04:35 1.1M
20260507T00Z_MSC_GDPS_DewPointDepression_IsbL-0700_LatLon0.15_PT138H.grib2 2026-05-07 04:35 1.1M
20260507T00Z_MSC_GDPS_DewPointDepression_IsbL-0750_LatLon0.15_PT138H.grib2 2026-05-07 04:35 1.1M
20260507T00Z_MSC_GDPS_DewPointDepression_IsbL-0800_LatLon0.15_PT138H.grib2 2026-05-07 04:35 1.2M
20260507T00Z_MSC_GDPS_DewPointDepression_IsbL-0850_LatLon0.15_PT138H.grib2 2026-05-07 04:35 1.1M
20260507T00Z_MSC_GDPS_DewPointDepression_IsbL-0875_LatLon0.15_PT138H.grib2 2026-05-07 04:35 1.1M
20260507T00Z_MSC_GDPS_DewPointDepression_IsbL-0900_LatLon0.15_PT138H.grib2 2026-05-07 04:35 1.1M
20260507T00Z_MSC_GDPS_DewPointDepression_IsbL-0925_LatLon0.15_PT138H.grib2 2026-05-07 04:35 1.0M
20260507T00Z_MSC_GDPS_DewPointDepression_IsbL-0950_LatLon0.15_PT138H.grib2 2026-05-07 04:35 1.0M
20260507T00Z_MSC_GDPS_DewPointDepression_IsbL-0970_LatLon0.15_PT138H.grib2 2026-05-07 04:35 1.0M
20260507T00Z_MSC_GDPS_DewPointDepression_IsbL-0985_LatLon0.15_PT138H.grib2 2026-05-07 04:35 1.0M
20260507T00Z_MSC_GDPS_DewPointDepression_IsbL-1000_LatLon0.15_PT138H.grib2 2026-05-07 04:35 970K
20260507T00Z_MSC_GDPS_DewPointDepression_IsbL-1015_LatLon0.15_PT138H.grib2 2026-05-07 04:35 909K
20260507T00Z_MSC_GDPS_DewPoint_AGL-2m_LatLon0.15_PT138H.grib2 2026-05-07 04:35 611K
20260507T00Z_MSC_GDPS_DownwardLongwaveRadiationFlux-Accum_Sfc_LatLon0.15_PT138H.grib2 2026-05-07 04:35 834K
20260507T00Z_MSC_GDPS_DownwardShortwaveRadiationFlux-Accum_NTAtm_LatLon0.15_PT138H.grib2 2026-05-07 04:35 182K
20260507T00Z_MSC_GDPS_DownwardShortwaveRadiationFlux-Accum_Sfc_LatLon0.15_PT138H.grib2 2026-05-07 04:35 1.0M
20260507T00Z_MSC_GDPS_FreezingRain-Accum12h_Sfc_LatLon0.15_PT138H.grib2 2026-05-07 04:35 114K
20260507T00Z_MSC_GDPS_FreezingRain-Accum1h_Sfc_LatLon0.15_PT138H.grib2 2026-05-07 04:35 37K
20260507T00Z_MSC_GDPS_FreezingRain-Accum24h_Sfc_LatLon0.15_PT138H.grib2 2026-05-07 04:35 165K
20260507T00Z_MSC_GDPS_FreezingRain-Accum3h_Sfc_LatLon0.15_PT138H.grib2 2026-05-07 04:35 49K
20260507T00Z_MSC_GDPS_FreezingRain-Accum6h_Sfc_LatLon0.15_PT138H.grib2 2026-05-07 04:35 85K
20260507T00Z_MSC_GDPS_FreezingRain-Accum_Sfc_LatLon0.15_PT138H.grib2 2026-05-07 04:35 350K
20260507T00Z_MSC_GDPS_GeopotentialHeight_IsbL-0001_LatLon0.15_PT138H.grib2 2026-05-07 04:35 451K
20260507T00Z_MSC_GDPS_GeopotentialHeight_IsbL-0005_LatLon0.15_PT138H.grib2 2026-05-07 04:35 491K
20260507T00Z_MSC_GDPS_GeopotentialHeight_IsbL-0010_LatLon0.15_PT138H.grib2 2026-05-07 04:35 474K
20260507T00Z_MSC_GDPS_GeopotentialHeight_IsbL-0020_LatLon0.15_PT138H.grib2 2026-05-07 04:35 408K
20260507T00Z_MSC_GDPS_GeopotentialHeight_IsbL-0030_LatLon0.15_PT138H.grib2 2026-05-07 04:35 413K
20260507T00Z_MSC_GDPS_GeopotentialHeight_IsbL-0050_LatLon0.15_PT138H.grib2 2026-05-07 04:35 574K
20260507T00Z_MSC_GDPS_GeopotentialHeight_IsbL-0100_LatLon0.15_PT138H.grib2 2026-05-07 04:35 616K
20260507T00Z_MSC_GDPS_GeopotentialHeight_IsbL-0150_LatLon0.15_PT138H.grib2 2026-05-07 04:35 636K
20260507T00Z_MSC_GDPS_GeopotentialHeight_IsbL-0175_LatLon0.15_PT138H.grib2 2026-05-07 04:35 641K
20260507T00Z_MSC_GDPS_GeopotentialHeight_IsbL-0200_LatLon0.15_PT138H.grib2 2026-05-07 04:35 645K
20260507T00Z_MSC_GDPS_GeopotentialHeight_IsbL-0225_LatLon0.15_PT138H.grib2 2026-05-07 04:35 647K
20260507T00Z_MSC_GDPS_GeopotentialHeight_IsbL-0250_LatLon0.15_PT138H.grib2 2026-05-07 04:35 645K
20260507T00Z_MSC_GDPS_GeopotentialHeight_IsbL-0275_LatLon0.15_PT138H.grib2 2026-05-07 04:35 647K
20260507T00Z_MSC_GDPS_GeopotentialHeight_IsbL-0300_LatLon0.15_PT138H.grib2 2026-05-07 04:35 645K
20260507T00Z_MSC_GDPS_GeopotentialHeight_IsbL-0350_LatLon0.15_PT138H.grib2 2026-05-07 04:35 636K
20260507T00Z_MSC_GDPS_GeopotentialHeight_IsbL-0400_LatLon0.15_PT138H.grib2 2026-05-07 04:35 627K
20260507T00Z_MSC_GDPS_GeopotentialHeight_IsbL-0450_LatLon0.15_PT138H.grib2 2026-05-07 04:35 617K
20260507T00Z_MSC_GDPS_GeopotentialHeight_IsbL-0500_LatLon0.15_PT138H.grib2 2026-05-07 04:35 608K
20260507T00Z_MSC_GDPS_GeopotentialHeight_IsbL-0550_LatLon0.15_PT138H.grib2 2026-05-07 04:35 533K
20260507T00Z_MSC_GDPS_GeopotentialHeight_IsbL-0600_LatLon0.15_PT138H.grib2 2026-05-07 04:35 529K
20260507T00Z_MSC_GDPS_GeopotentialHeight_IsbL-0650_LatLon0.15_PT138H.grib2 2026-05-07 04:35 527K
20260507T00Z_MSC_GDPS_GeopotentialHeight_IsbL-0700_LatLon0.15_PT138H.grib2 2026-05-07 04:35 692K
20260507T00Z_MSC_GDPS_GeopotentialHeight_IsbL-0750_LatLon0.15_PT138H.grib2 2026-05-07 04:35 698K
20260507T00Z_MSC_GDPS_GeopotentialHeight_IsbL-0800_LatLon0.15_PT138H.grib2 2026-05-07 04:35 708K
20260507T00Z_MSC_GDPS_GeopotentialHeight_IsbL-0850_LatLon0.15_PT138H.grib2 2026-05-07 04:35 717K
20260507T00Z_MSC_GDPS_GeopotentialHeight_IsbL-0875_LatLon0.15_PT138H.grib2 2026-05-07 04:35 725K
20260507T00Z_MSC_GDPS_GeopotentialHeight_IsbL-0900_LatLon0.15_PT138H.grib2 2026-05-07 04:35 731K
20260507T00Z_MSC_GDPS_GeopotentialHeight_IsbL-0925_LatLon0.15_PT138H.grib2 2026-05-07 04:35 738K
20260507T00Z_MSC_GDPS_GeopotentialHeight_IsbL-0950_LatLon0.15_PT138H.grib2 2026-05-07 04:35 568K
20260507T00Z_MSC_GDPS_GeopotentialHeight_IsbL-0970_LatLon0.15_PT138H.grib2 2026-05-07 04:35 577K
20260507T00Z_MSC_GDPS_GeopotentialHeight_IsbL-0985_LatLon0.15_PT138H.grib2 2026-05-07 04:35 590K
20260507T00Z_MSC_GDPS_GeopotentialHeight_IsbL-1000_LatLon0.15_PT138H.grib2 2026-05-07 04:35 607K
20260507T00Z_MSC_GDPS_GeopotentialHeight_IsbL-1015_LatLon0.15_PT138H.grib2 2026-05-07 04:35 624K
20260507T00Z_MSC_GDPS_Humidex_Sfc_LatLon0.15_PT138H.grib2 2026-05-07 04:35 5.3M
20260507T00Z_MSC_GDPS_IcePellets-Accum12h_Sfc_LatLon0.15_PT138H.grib2 2026-05-07 04:35 17K
20260507T00Z_MSC_GDPS_IcePellets-Accum1h_Sfc_LatLon0.15_PT138H.grib2 2026-05-07 04:35 18K
20260507T00Z_MSC_GDPS_IcePellets-Accum24h_Sfc_LatLon0.15_PT138H.grib2 2026-05-07 04:35 28K
20260507T00Z_MSC_GDPS_IcePellets-Accum3h_Sfc_LatLon0.15_PT138H.grib2 2026-05-07 04:35 20K
20260507T00Z_MSC_GDPS_IcePellets-Accum6h_Sfc_LatLon0.15_PT138H.grib2 2026-05-07 04:35 19K
20260507T00Z_MSC_GDPS_IcePellets-Accum_Sfc_LatLon0.15_PT138H.grib2 2026-05-07 04:35 161K
20260507T00Z_MSC_GDPS_KIndex_Sfc_LatLon0.15_PT138H.grib2 2026-05-07 04:35 6.5M
20260507T00Z_MSC_GDPS_LatentHeatNetFlux_Sfc_LatLon0.15_PT138H.grib2 2026-05-07 04:35 530K
20260507T00Z_MSC_GDPS_LiftedIndex-MU-VT_IsbL-0500_LatLon0.15_PT138H.grib2 2026-05-07 04:35 5.4M
20260507T00Z_MSC_GDPS_NetLongwaveRadiationFlux-Accum_Sfc_LatLon0.15_PT138H.grib2 2026-05-07 04:35 1.1M
20260507T00Z_MSC_GDPS_NetShortwaveRadiationFlux-Accum_Sfc_LatLon0.15_PT138H.grib2 2026-05-07 04:35 1.0M
20260507T00Z_MSC_GDPS_O3MixingRatio_Sfc_LatLon0.15_PT138H.grib2 2026-05-07 04:56 2.2M
20260507T00Z_MSC_GDPS_O3_EAtm_LatLon0.15_PT138H.grib2 2026-05-07 04:56 2.4M
20260507T00Z_MSC_GDPS_PlanetaryBoundaryLayerHeight_Sfc_LatLon0.15_PT138H.grib2 2026-05-07 04:35 2.4M
20260507T00Z_MSC_GDPS_Precip-Accum12h_Sfc_LatLon0.15_PT138H.grib2 2026-05-07 04:35 3.8M
20260507T00Z_MSC_GDPS_Precip-Accum1h_Sfc_LatLon0.15_PT138H.grib2 2026-05-07 04:35 3.2M
20260507T00Z_MSC_GDPS_Precip-Accum24h_Sfc_LatLon0.15_PT138H.grib2 2026-05-07 04:35 4.3M
20260507T00Z_MSC_GDPS_Precip-Accum3h_Sfc_LatLon0.15_PT138H.grib2 2026-05-07 04:35 3.5M
20260507T00Z_MSC_GDPS_Precip-Accum6h_Sfc_LatLon0.15_PT138H.grib2 2026-05-07 04:35 3.6M
20260507T00Z_MSC_GDPS_Precip-Accum_Sfc_LatLon0.15_PT138H.grib2 2026-05-07 04:35 4.9M
20260507T00Z_MSC_GDPS_PrecipRate_Sfc_LatLon0.15_PT138H.grib2 2026-05-07 04:35 3.0M
20260507T00Z_MSC_GDPS_PrecipType-Instant_Sfc_LatLon0.15_PT138H.grib2 2026-05-07 04:35 1.6M
20260507T00Z_MSC_GDPS_Pressure_MSL_LatLon0.15_PT138H.grib2 2026-05-07 04:35 834K
20260507T00Z_MSC_GDPS_Pressure_PVU-1.5_LatLon0.15_PT138H.grib2 2026-05-07 04:35 5.8M
20260507T00Z_MSC_GDPS_Pressure_PVU-1_LatLon0.15_PT138H.grib2 2026-05-07 04:35 6.0M
20260507T00Z_MSC_GDPS_Pressure_PVU-2_LatLon0.15_PT138H.grib2 2026-05-07 04:35 5.7M
20260507T00Z_MSC_GDPS_Pressure_Sfc_LatLon0.15_PT138H.grib2 2026-05-07 04:35 1.1M
20260507T00Z_MSC_GDPS_RadiativeTemp_Sfc_LatLon0.15_PT138H.grib2 2026-05-07 04:35 661K
20260507T00Z_MSC_GDPS_Rain-Accum12h_Sfc_LatLon0.15_PT138H.grib2 2026-05-07 04:35 2.6M
20260507T00Z_MSC_GDPS_Rain-Accum1h_Sfc_LatLon0.15_PT138H.grib2 2026-05-07 04:35 1.7M
20260507T00Z_MSC_GDPS_Rain-Accum24h_Sfc_LatLon0.15_PT138H.grib2 2026-05-07 04:35 2.9M
20260507T00Z_MSC_GDPS_Rain-Accum3h_Sfc_LatLon0.15_PT138H.grib2 2026-05-07 04:35 1.7M
20260507T00Z_MSC_GDPS_Rain-Accum6h_Sfc_LatLon0.15_PT138H.grib2 2026-05-07 04:35 2.3M
20260507T00Z_MSC_GDPS_Rain-Accum_Sfc_LatLon0.15_PT138H.grib2 2026-05-07 04:35 3.9M
20260507T00Z_MSC_GDPS_RelativeHumidity_AGL-2m_LatLon0.15_PT138H.grib2 2026-05-07 04:35 1.0M
20260507T00Z_MSC_GDPS_RelativeHumidity_IsbL-0010_LatLon0.15_PT138H.grib2 2026-05-07 04:35 157K
20260507T00Z_MSC_GDPS_RelativeHumidity_IsbL-0020_LatLon0.15_PT138H.grib2 2026-05-07 04:35 120K
20260507T00Z_MSC_GDPS_RelativeHumidity_IsbL-0030_LatLon0.15_PT138H.grib2 2026-05-07 04:35 188K
20260507T00Z_MSC_GDPS_RelativeHumidity_IsbL-0050_LatLon0.15_PT138H.grib2 2026-05-07 04:35 335K
20260507T00Z_MSC_GDPS_RelativeHumidity_IsbL-0100_LatLon0.15_PT138H.grib2 2026-05-07 04:35 496K
20260507T00Z_MSC_GDPS_RelativeHumidity_IsbL-0150_LatLon0.15_PT138H.grib2 2026-05-07 04:35 675K
20260507T00Z_MSC_GDPS_RelativeHumidity_IsbL-0175_LatLon0.15_PT138H.grib2 2026-05-07 04:35 808K
20260507T00Z_MSC_GDPS_RelativeHumidity_IsbL-0200_LatLon0.15_PT138H.grib2 2026-05-07 04:35 722K
20260507T00Z_MSC_GDPS_RelativeHumidity_IsbL-0225_LatLon0.15_PT138H.grib2 2026-05-07 04:35 806K
20260507T00Z_MSC_GDPS_RelativeHumidity_IsbL-0250_LatLon0.15_PT138H.grib2 2026-05-07 04:35 882K
20260507T00Z_MSC_GDPS_RelativeHumidity_IsbL-0275_LatLon0.15_PT138H.grib2 2026-05-07 04:35 904K
20260507T00Z_MSC_GDPS_RelativeHumidity_IsbL-0300_LatLon0.15_PT138H.grib2 2026-05-07 04:35 946K
20260507T00Z_MSC_GDPS_RelativeHumidity_IsbL-0350_LatLon0.15_PT138H.grib2 2026-05-07 04:35 963K
20260507T00Z_MSC_GDPS_RelativeHumidity_IsbL-0400_LatLon0.15_PT138H.grib2 2026-05-07 04:35 1.0M
20260507T00Z_MSC_GDPS_RelativeHumidity_IsbL-0450_LatLon0.15_PT138H.grib2 2026-05-07 04:35 1.0M
20260507T00Z_MSC_GDPS_RelativeHumidity_IsbL-0500_LatLon0.15_PT138H.grib2 2026-05-07 04:35 1.0M
20260507T00Z_MSC_GDPS_RelativeHumidity_IsbL-0550_LatLon0.15_PT138H.grib2 2026-05-07 04:35 1.0M
20260507T00Z_MSC_GDPS_RelativeHumidity_IsbL-0600_LatLon0.15_PT138H.grib2 2026-05-07 04:35 1.0M
20260507T00Z_MSC_GDPS_RelativeHumidity_IsbL-0650_LatLon0.15_PT138H.grib2 2026-05-07 04:35 1.1M
20260507T00Z_MSC_GDPS_RelativeHumidity_IsbL-0700_LatLon0.15_PT138H.grib2 2026-05-07 04:35 1.1M
20260507T00Z_MSC_GDPS_RelativeHumidity_IsbL-0750_LatLon0.15_PT138H.grib2 2026-05-07 04:35 1.2M
20260507T00Z_MSC_GDPS_RelativeHumidity_IsbL-0800_LatLon0.15_PT138H.grib2 2026-05-07 04:35 1.2M
20260507T00Z_MSC_GDPS_RelativeHumidity_IsbL-0850_LatLon0.15_PT138H.grib2 2026-05-07 04:35 1.2M
20260507T00Z_MSC_GDPS_RelativeHumidity_IsbL-0875_LatLon0.15_PT138H.grib2 2026-05-07 04:35 1.2M
20260507T00Z_MSC_GDPS_RelativeHumidity_IsbL-0900_LatLon0.15_PT138H.grib2 2026-05-07 04:35 1.2M
20260507T00Z_MSC_GDPS_RelativeHumidity_IsbL-0925_LatLon0.15_PT138H.grib2 2026-05-07 04:35 1.2M
20260507T00Z_MSC_GDPS_RelativeHumidity_IsbL-0950_LatLon0.15_PT138H.grib2 2026-05-07 04:35 1.2M
20260507T00Z_MSC_GDPS_RelativeHumidity_IsbL-0970_LatLon0.15_PT138H.grib2 2026-05-07 04:35 1.2M
20260507T00Z_MSC_GDPS_RelativeHumidity_IsbL-0985_LatLon0.15_PT138H.grib2 2026-05-07 04:35 1.1M
20260507T00Z_MSC_GDPS_RelativeHumidity_IsbL-1000_LatLon0.15_PT138H.grib2 2026-05-07 04:35 1.1M
20260507T00Z_MSC_GDPS_RelativeHumidity_IsbL-1015_LatLon0.15_PT138H.grib2 2026-05-07 04:35 1.0M
20260507T00Z_MSC_GDPS_RelativeVorticity_IsbL-0200_LatLon0.15_PT138H.grib2 2026-05-07 04:35 1.2M
20260507T00Z_MSC_GDPS_RelativeVorticity_IsbL-0250_LatLon0.15_PT138H.grib2 2026-05-07 04:35 1.3M
20260507T00Z_MSC_GDPS_RelativeVorticity_IsbL-0500_LatLon0.15_PT138H.grib2 2026-05-07 04:35 1.2M
20260507T00Z_MSC_GDPS_RelativeVorticity_IsbL-0700_LatLon0.15_PT138H.grib2 2026-05-07 04:35 1.3M
20260507T00Z_MSC_GDPS_RelativeVorticity_IsbL-0850_LatLon0.15_PT138H.grib2 2026-05-07 04:35 1.6M
20260507T00Z_MSC_GDPS_Runoff-Accum_Sfc_LatLon0.15_PT138H.grib2 2026-05-07 04:35 109K
20260507T00Z_MSC_GDPS_SensibleHeatNetFlux_Sfc_LatLon0.15_PT138H.grib2 2026-05-07 04:35 470K
20260507T00Z_MSC_GDPS_ShowalterIndex_IsbL-0500_LatLon0.15_PT138H.grib2 2026-05-07 04:35 6.2M
20260507T00Z_MSC_GDPS_Snow-Accum12h_Sfc_LatLon0.15_PT138H.grib2 2026-05-07 04:35 1.3M
20260507T00Z_MSC_GDPS_Snow-Accum1h_Sfc_LatLon0.15_PT138H.grib2 2026-05-07 04:35 880K
20260507T00Z_MSC_GDPS_Snow-Accum24h_Sfc_LatLon0.15_PT138H.grib2 2026-05-07 04:35 1.4M
20260507T00Z_MSC_GDPS_Snow-Accum3h_Sfc_LatLon0.15_PT138H.grib2 2026-05-07 04:35 912K
20260507T00Z_MSC_GDPS_Snow-Accum6h_Sfc_LatLon0.15_PT138H.grib2 2026-05-07 04:35 1.2M
20260507T00Z_MSC_GDPS_Snow-Accum_Sfc_LatLon0.15_PT138H.grib2 2026-05-07 04:35 2.2M
20260507T00Z_MSC_GDPS_SnowDensity_Sfc_LatLon0.15_PT138H.grib2 2026-05-07 04:35 259K
20260507T00Z_MSC_GDPS_SnowDepth_Sfc_LatLon0.15_PT138H.grib2 2026-05-07 04:35 1.7M
20260507T00Z_MSC_GDPS_SoilTemp_DBS-0to10cm_LatLon0.15_PT138H.grib2 2026-05-07 04:35 513K
20260507T00Z_MSC_GDPS_SoilTemp_Sfc_LatLon0.15_PT138H.grib2 2026-05-07 04:35 579K
20260507T00Z_MSC_GDPS_SoilVolumetricIceContent_Sfc_LatLon0.15_PT138H.grib2 2026-05-07 04:35 173K
20260507T00Z_MSC_GDPS_SoilVolumetricWaterContent_DBS-0to10cm_LatLon0.15_PT138H.grib2 2026-05-07 04:35 602K
20260507T00Z_MSC_GDPS_SoilVolumetricWaterContent_DBS-0to1cm_LatLon0.15_PT138H.grib2 2026-05-07 04:35 646K
20260507T00Z_MSC_GDPS_SpecificHumidity_AGL-120m_LatLon0.15_PT138H.grib2 2026-05-07 04:35 1.1M
20260507T00Z_MSC_GDPS_SpecificHumidity_AGL-2m_LatLon0.15_PT138H.grib2 2026-05-07 04:35 1.2M
20260507T00Z_MSC_GDPS_SpecificHumidity_AGL-40m_LatLon0.15_PT138H.grib2 2026-05-07 04:35 1.1M
20260507T00Z_MSC_GDPS_SpecificHumidity_AGL-80m_LatLon0.15_PT138H.grib2 2026-05-07 04:35 1.1M
20260507T00Z_MSC_GDPS_SpecificHumidity_IsbL-0001_LatLon0.15_PT138H.grib2 2026-05-07 04:35 1.2M
20260507T00Z_MSC_GDPS_SpecificHumidity_IsbL-0005_LatLon0.15_PT138H.grib2 2026-05-07 04:35 1.1M
20260507T00Z_MSC_GDPS_SpecificHumidity_IsbL-0010_LatLon0.15_PT138H.grib2 2026-05-07 04:35 1.2M
20260507T00Z_MSC_GDPS_SpecificHumidity_IsbL-0020_LatLon0.15_PT138H.grib2 2026-05-07 04:35 1.2M
20260507T00Z_MSC_GDPS_SpecificHumidity_IsbL-0030_LatLon0.15_PT138H.grib2 2026-05-07 04:35 1.2M
20260507T00Z_MSC_GDPS_SpecificHumidity_IsbL-0050_LatLon0.15_PT138H.grib2 2026-05-07 04:35 1.5M
20260507T00Z_MSC_GDPS_SpecificHumidity_IsbL-0100_LatLon0.15_PT138H.grib2 2026-05-07 04:35 1.2M
20260507T00Z_MSC_GDPS_SpecificHumidity_IsbL-0150_LatLon0.15_PT138H.grib2 2026-05-07 04:35 1.2M
20260507T00Z_MSC_GDPS_SpecificHumidity_IsbL-0175_LatLon0.15_PT138H.grib2 2026-05-07 04:35 1.3M
20260507T00Z_MSC_GDPS_SpecificHumidity_IsbL-0200_LatLon0.15_PT138H.grib2 2026-05-07 04:35 1.3M
20260507T00Z_MSC_GDPS_SpecificHumidity_IsbL-0225_LatLon0.15_PT138H.grib2 2026-05-07 04:35 1.3M
20260507T00Z_MSC_GDPS_SpecificHumidity_IsbL-0250_LatLon0.15_PT138H.grib2 2026-05-07 04:35 1.2M
20260507T00Z_MSC_GDPS_SpecificHumidity_IsbL-0275_LatLon0.15_PT138H.grib2 2026-05-07 04:35 1.4M
20260507T00Z_MSC_GDPS_SpecificHumidity_IsbL-0300_LatLon0.15_PT138H.grib2 2026-05-07 04:35 1.3M
20260507T00Z_MSC_GDPS_SpecificHumidity_IsbL-0350_LatLon0.15_PT138H.grib2 2026-05-07 04:35 1.3M
20260507T00Z_MSC_GDPS_SpecificHumidity_IsbL-0400_LatLon0.15_PT138H.grib2 2026-05-07 04:35 1.4M
20260507T00Z_MSC_GDPS_SpecificHumidity_IsbL-0450_LatLon0.15_PT138H.grib2 2026-05-07 04:35 1.3M
20260507T00Z_MSC_GDPS_SpecificHumidity_IsbL-0500_LatLon0.15_PT138H.grib2 2026-05-07 04:35 1.5M
20260507T00Z_MSC_GDPS_SpecificHumidity_IsbL-0550_LatLon0.15_PT138H.grib2 2026-05-07 04:35 1.6M
20260507T00Z_MSC_GDPS_SpecificHumidity_IsbL-0600_LatLon0.15_PT138H.grib2 2026-05-07 04:35 1.5M
20260507T00Z_MSC_GDPS_SpecificHumidity_IsbL-0650_LatLon0.15_PT138H.grib2 2026-05-07 04:35 1.6M
20260507T00Z_MSC_GDPS_SpecificHumidity_IsbL-0700_LatLon0.15_PT138H.grib2 2026-05-07 04:35 1.7M
20260507T00Z_MSC_GDPS_SpecificHumidity_IsbL-0750_LatLon0.15_PT138H.grib2 2026-05-07 04:35 1.8M
20260507T00Z_MSC_GDPS_SpecificHumidity_IsbL-0800_LatLon0.15_PT138H.grib2 2026-05-07 04:35 1.9M
20260507T00Z_MSC_GDPS_SpecificHumidity_IsbL-0850_LatLon0.15_PT138H.grib2 2026-05-07 04:35 2.0M
20260507T00Z_MSC_GDPS_SpecificHumidity_IsbL-0875_LatLon0.15_PT138H.grib2 2026-05-07 04:35 2.0M
20260507T00Z_MSC_GDPS_SpecificHumidity_IsbL-0900_LatLon0.15_PT138H.grib2 2026-05-07 04:35 2.0M
20260507T00Z_MSC_GDPS_SpecificHumidity_IsbL-0925_LatLon0.15_PT138H.grib2 2026-05-07 04:35 1.6M
20260507T00Z_MSC_GDPS_SpecificHumidity_IsbL-0950_LatLon0.15_PT138H.grib2 2026-05-07 04:35 1.6M
20260507T00Z_MSC_GDPS_SpecificHumidity_IsbL-0970_LatLon0.15_PT138H.grib2 2026-05-07 04:35 1.6M
20260507T00Z_MSC_GDPS_SpecificHumidity_IsbL-0985_LatLon0.15_PT138H.grib2 2026-05-07 04:35 1.6M
20260507T00Z_MSC_GDPS_SpecificHumidity_IsbL-1000_LatLon0.15_PT138H.grib2 2026-05-07 04:35 1.5M
20260507T00Z_MSC_GDPS_SpecificHumidity_IsbL-1015_LatLon0.15_PT138H.grib2 2026-05-07 04:35 1.5M
20260507T00Z_MSC_GDPS_SpecificHumidity_Sfc_LatLon0.15_PT138H.grib2 2026-05-07 04:35 683K
20260507T00Z_MSC_GDPS_Thickness_IsbL-0850to0700_LatLon0.15_PT138H.grib2 2026-05-07 04:35 475K
20260507T00Z_MSC_GDPS_Thickness_IsbL-1000to0500_LatLon0.15_PT138H.grib2 2026-05-07 04:35 382K
20260507T00Z_MSC_GDPS_Thickness_IsbL-1000to0850_LatLon0.15_PT138H.grib2 2026-05-07 04:35 493K
20260507T00Z_MSC_GDPS_TotalCloudCover_Sfc_LatLon0.15_PT138H.grib2 2026-05-07 04:35 833K
20260507T00Z_MSC_GDPS_TotalTotalsIndex_Sfc_LatLon0.15_PT138H.grib2 2026-05-07 04:35 6.2M
20260507T00Z_MSC_GDPS_UVIndex-ClearSky-Max24h_Sfc_LatLon0.15_PT138H.grib2 2026-05-07 04:56 2.2M
20260507T00Z_MSC_GDPS_UVIndex-ClearSky_Sfc_LatLon0.15_PT138H.grib2 2026-05-07 04:56 1.0M
20260507T00Z_MSC_GDPS_UVIndex-Max24h_Sfc_LatLon0.15_PT138H.grib2 2026-05-07 04:56 3.1M
20260507T00Z_MSC_GDPS_UVIndex_Sfc_LatLon0.15_PT138H.grib2 2026-05-07 04:56 1.5M
20260507T00Z_MSC_GDPS_UpwardLongwaveRadiationFlux_NTAtm_LatLon0.15_PT138H.grib2 2026-05-07 04:35 850K
20260507T00Z_MSC_GDPS_VerticalVelocity_IsbL-0200_LatLon0.15_PT138H.grib2 2026-05-07 04:35 1.2M
20260507T00Z_MSC_GDPS_VerticalVelocity_IsbL-0250_LatLon0.15_PT138H.grib2 2026-05-07 04:35 1.1M
20260507T00Z_MSC_GDPS_VerticalVelocity_IsbL-0500_LatLon0.15_PT138H.grib2 2026-05-07 04:35 1.0M
20260507T00Z_MSC_GDPS_VerticalVelocity_IsbL-0600_LatLon0.15_PT138H.grib2 2026-05-07 04:35 1.1M
20260507T00Z_MSC_GDPS_VerticalVelocity_IsbL-0700_LatLon0.15_PT138H.grib2 2026-05-07 04:35 1.2M
20260507T00Z_MSC_GDPS_VerticalVelocity_IsbL-0850_LatLon0.15_PT138H.grib2 2026-05-07 04:35 1.3M
20260507T00Z_MSC_GDPS_WindChill_Sfc_LatLon0.15_PT138H.grib2 2026-05-07 04:35 5.3M
20260507T00Z_MSC_GDPS_WindDir_AGL-10m_LatLon0.15_PT138H.grib2 2026-05-07 04:35 1.3M
20260507T00Z_MSC_GDPS_WindDir_AGL-120m_LatLon0.15_PT138H.grib2 2026-05-07 04:35 1.3M
20260507T00Z_MSC_GDPS_WindDir_AGL-40m_LatLon0.15_PT138H.grib2 2026-05-07 04:35 1.4M
20260507T00Z_MSC_GDPS_WindDir_AGL-80m_LatLon0.15_PT138H.grib2 2026-05-07 04:35 1.4M
20260507T00Z_MSC_GDPS_WindDir_IsbL-0001_LatLon0.15_PT138H.grib2 2026-05-07 04:35 652K
20260507T00Z_MSC_GDPS_WindDir_IsbL-0005_LatLon0.15_PT138H.grib2 2026-05-07 04:35 807K
20260507T00Z_MSC_GDPS_WindDir_IsbL-0010_LatLon0.15_PT138H.grib2 2026-05-07 04:35 831K
20260507T00Z_MSC_GDPS_WindDir_IsbL-0020_LatLon0.15_PT138H.grib2 2026-05-07 04:35 940K
20260507T00Z_MSC_GDPS_WindDir_IsbL-0030_LatLon0.15_PT138H.grib2 2026-05-07 04:35 956K
20260507T00Z_MSC_GDPS_WindDir_IsbL-0050_LatLon0.15_PT138H.grib2 2026-05-07 04:35 962K
20260507T00Z_MSC_GDPS_WindDir_IsbL-0100_LatLon0.15_PT138H.grib2 2026-05-07 04:35 1.0M
20260507T00Z_MSC_GDPS_WindDir_IsbL-0150_LatLon0.15_PT138H.grib2 2026-05-07 04:35 1.0M
20260507T00Z_MSC_GDPS_WindDir_IsbL-0175_LatLon0.15_PT138H.grib2 2026-05-07 04:35 1.0M
20260507T00Z_MSC_GDPS_WindDir_IsbL-0200_LatLon0.15_PT138H.grib2 2026-05-07 04:35 1.1M
20260507T00Z_MSC_GDPS_WindDir_IsbL-0225_LatLon0.15_PT138H.grib2 2026-05-07 04:35 1.1M
20260507T00Z_MSC_GDPS_WindDir_IsbL-0250_LatLon0.15_PT138H.grib2 2026-05-07 04:35 1.1M
20260507T00Z_MSC_GDPS_WindDir_IsbL-0275_LatLon0.15_PT138H.grib2 2026-05-07 04:35 1.2M
20260507T00Z_MSC_GDPS_WindDir_IsbL-0300_LatLon0.15_PT138H.grib2 2026-05-07 04:35 1.2M
20260507T00Z_MSC_GDPS_WindDir_IsbL-0350_LatLon0.15_PT138H.grib2 2026-05-07 04:35 1.2M
20260507T00Z_MSC_GDPS_WindDir_IsbL-0400_LatLon0.15_PT138H.grib2 2026-05-07 04:35 1.3M
20260507T00Z_MSC_GDPS_WindDir_IsbL-0450_LatLon0.15_PT138H.grib2 2026-05-07 04:35 1.3M
20260507T00Z_MSC_GDPS_WindDir_IsbL-0500_LatLon0.15_PT138H.grib2 2026-05-07 04:35 1.4M
20260507T00Z_MSC_GDPS_WindDir_IsbL-0550_LatLon0.15_PT138H.grib2 2026-05-07 04:35 1.4M
20260507T00Z_MSC_GDPS_WindDir_IsbL-0600_LatLon0.15_PT138H.grib2 2026-05-07 04:35 1.5M
20260507T00Z_MSC_GDPS_WindDir_IsbL-0650_LatLon0.15_PT138H.grib2 2026-05-07 04:35 1.5M
20260507T00Z_MSC_GDPS_WindDir_IsbL-0700_LatLon0.15_PT138H.grib2 2026-05-07 04:35 1.6M
20260507T00Z_MSC_GDPS_WindDir_IsbL-0750_LatLon0.15_PT138H.grib2 2026-05-07 04:35 1.7M
20260507T00Z_MSC_GDPS_WindDir_IsbL-0800_LatLon0.15_PT138H.grib2 2026-05-07 04:35 1.8M
20260507T00Z_MSC_GDPS_WindDir_IsbL-0850_LatLon0.15_PT138H.grib2 2026-05-07 04:35 1.9M
20260507T00Z_MSC_GDPS_WindDir_IsbL-0875_LatLon0.15_PT138H.grib2 2026-05-07 04:35 1.9M
20260507T00Z_MSC_GDPS_WindDir_IsbL-0900_LatLon0.15_PT138H.grib2 2026-05-07 04:35 1.9M
20260507T00Z_MSC_GDPS_WindDir_IsbL-0925_LatLon0.15_PT138H.grib2 2026-05-07 04:35 2.0M
20260507T00Z_MSC_GDPS_WindDir_IsbL-0950_LatLon0.15_PT138H.grib2 2026-05-07 04:35 2.0M
20260507T00Z_MSC_GDPS_WindDir_IsbL-0970_LatLon0.15_PT138H.grib2 2026-05-07 04:35 2.0M
20260507T00Z_MSC_GDPS_WindDir_IsbL-0985_LatLon0.15_PT138H.grib2 2026-05-07 04:35 2.0M
20260507T00Z_MSC_GDPS_WindDir_IsbL-1000_LatLon0.15_PT138H.grib2 2026-05-07 04:35 2.0M
20260507T00Z_MSC_GDPS_WindDir_IsbL-1015_LatLon0.15_PT138H.grib2 2026-05-07 04:35 2.0M
20260507T00Z_MSC_GDPS_WindGust-Max_AGL-10m_LatLon0.15_PT138H.grib2 2026-05-07 04:35 2.2M
20260507T00Z_MSC_GDPS_WindGust-Min_AGL-10m_LatLon0.15_PT138H.grib2 2026-05-07 04:35 2.2M
20260507T00Z_MSC_GDPS_WindGust_AGL-10m_LatLon0.15_PT138H.grib2 2026-05-07 04:35 2.2M
20260507T00Z_MSC_GDPS_WindSpeed_AGL-10m_LatLon0.15_PT138H.grib2 2026-05-07 04:35 1.1M
20260507T00Z_MSC_GDPS_WindSpeed_AGL-120m_LatLon0.15_PT138H.grib2 2026-05-07 04:35 1.2M
20260507T00Z_MSC_GDPS_WindSpeed_AGL-40m_LatLon0.15_PT138H.grib2 2026-05-07 04:35 1.2M
20260507T00Z_MSC_GDPS_WindSpeed_AGL-80m_LatLon0.15_PT138H.grib2 2026-05-07 04:35 1.3M
20260507T00Z_MSC_GDPS_WindSpeed_IsbL-0001_LatLon0.15_PT138H.grib2 2026-05-07 04:35 504K
20260507T00Z_MSC_GDPS_WindSpeed_IsbL-0005_LatLon0.15_PT138H.grib2 2026-05-07 04:35 690K
20260507T00Z_MSC_GDPS_WindSpeed_IsbL-0010_LatLon0.15_PT138H.grib2 2026-05-07 04:35 625K
20260507T00Z_MSC_GDPS_WindSpeed_IsbL-0020_LatLon0.15_PT138H.grib2 2026-05-07 04:35 666K
20260507T00Z_MSC_GDPS_WindSpeed_IsbL-0030_LatLon0.15_PT138H.grib2 2026-05-07 04:35 673K
20260507T00Z_MSC_GDPS_WindSpeed_IsbL-0050_LatLon0.15_PT138H.grib2 2026-05-07 04:35 897K
20260507T00Z_MSC_GDPS_WindSpeed_IsbL-0100_LatLon0.15_PT138H.grib2 2026-05-07 04:35 1.1M
20260507T00Z_MSC_GDPS_WindSpeed_IsbL-0150_LatLon0.15_PT138H.grib2 2026-05-07 04:35 1.0M
20260507T00Z_MSC_GDPS_WindSpeed_IsbL-0175_LatLon0.15_PT138H.grib2 2026-05-07 04:35 1.0M
20260507T00Z_MSC_GDPS_WindSpeed_IsbL-0200_LatLon0.15_PT138H.grib2 2026-05-07 04:35 1.1M
20260507T00Z_MSC_GDPS_WindSpeed_IsbL-0225_LatLon0.15_PT138H.grib2 2026-05-07 04:35 1.1M
20260507T00Z_MSC_GDPS_WindSpeed_IsbL-0250_LatLon0.15_PT138H.grib2 2026-05-07 04:35 1.1M
20260507T00Z_MSC_GDPS_WindSpeed_IsbL-0275_LatLon0.15_PT138H.grib2 2026-05-07 04:35 1.1M
20260507T00Z_MSC_GDPS_WindSpeed_IsbL-0300_LatLon0.15_PT138H.grib2 2026-05-07 04:35 1.1M
20260507T00Z_MSC_GDPS_WindSpeed_IsbL-0350_LatLon0.15_PT138H.grib2 2026-05-07 04:35 1.1M
20260507T00Z_MSC_GDPS_WindSpeed_IsbL-0400_LatLon0.15_PT138H.grib2 2026-05-07 04:35 1.1M
20260507T00Z_MSC_GDPS_WindSpeed_IsbL-0450_LatLon0.15_PT138H.grib2 2026-05-07 04:35 1.1M
20260507T00Z_MSC_GDPS_WindSpeed_IsbL-0500_LatLon0.15_PT138H.grib2 2026-05-07 04:35 1.1M
20260507T00Z_MSC_GDPS_WindSpeed_IsbL-0550_LatLon0.15_PT138H.grib2 2026-05-07 04:35 1.1M
20260507T00Z_MSC_GDPS_WindSpeed_IsbL-0600_LatLon0.15_PT138H.grib2 2026-05-07 04:35 1.1M
20260507T00Z_MSC_GDPS_WindSpeed_IsbL-0650_LatLon0.15_PT138H.grib2 2026-05-07 04:35 1.2M
20260507T00Z_MSC_GDPS_WindSpeed_IsbL-0700_LatLon0.15_PT138H.grib2 2026-05-07 04:35 1.5M
20260507T00Z_MSC_GDPS_WindSpeed_IsbL-0750_LatLon0.15_PT138H.grib2 2026-05-07 04:35 1.6M
20260507T00Z_MSC_GDPS_WindSpeed_IsbL-0800_LatLon0.15_PT138H.grib2 2026-05-07 04:35 1.7M
20260507T00Z_MSC_GDPS_WindSpeed_IsbL-0850_LatLon0.15_PT138H.grib2 2026-05-07 04:35 1.7M
20260507T00Z_MSC_GDPS_WindSpeed_IsbL-0875_LatLon0.15_PT138H.grib2 2026-05-07 04:35 1.8M
20260507T00Z_MSC_GDPS_WindSpeed_IsbL-0900_LatLon0.15_PT138H.grib2 2026-05-07 04:35 1.8M
20260507T00Z_MSC_GDPS_WindSpeed_IsbL-0925_LatLon0.15_PT138H.grib2 2026-05-07 04:35 1.8M
20260507T00Z_MSC_GDPS_WindSpeed_IsbL-0950_LatLon0.15_PT138H.grib2 2026-05-07 04:35 1.9M
20260507T00Z_MSC_GDPS_WindSpeed_IsbL-0970_LatLon0.15_PT138H.grib2 2026-05-07 04:35 1.9M
20260507T00Z_MSC_GDPS_WindSpeed_IsbL-0985_LatLon0.15_PT138H.grib2 2026-05-07 04:35 1.9M
20260507T00Z_MSC_GDPS_WindSpeed_IsbL-1000_LatLon0.15_PT138H.grib2 2026-05-07 04:35 1.9M
20260507T00Z_MSC_GDPS_WindSpeed_IsbL-1015_LatLon0.15_PT138H.grib2 2026-05-07 04:35 1.8M
20260507T00Z_MSC_GDPS_WindU_AGL-10m_LatLon0.15_PT138H.grib2 2026-05-07 04:35 1.3M
20260507T00Z_MSC_GDPS_WindU_AGL-120m_LatLon0.15_PT138H.grib2 2026-05-07 04:35 1.0M
20260507T00Z_MSC_GDPS_WindU_AGL-40m_LatLon0.15_PT138H.grib2 2026-05-07 04:35 1.0M
20260507T00Z_MSC_GDPS_WindU_AGL-80m_LatLon0.15_PT138H.grib2 2026-05-07 04:35 1.0M
20260507T00Z_MSC_GDPS_WindU_IsbL-0001_LatLon0.15_PT138H.grib2 2026-05-07 04:35 509K
20260507T00Z_MSC_GDPS_WindU_IsbL-0005_LatLon0.15_PT138H.grib2 2026-05-07 04:35 692K
20260507T00Z_MSC_GDPS_WindU_IsbL-0010_LatLon0.15_PT138H.grib2 2026-05-07 04:35 698K
20260507T00Z_MSC_GDPS_WindU_IsbL-0020_LatLon0.15_PT138H.grib2 2026-05-07 04:35 729K
20260507T00Z_MSC_GDPS_WindU_IsbL-0030_LatLon0.15_PT138H.grib2 2026-05-07 04:35 739K
20260507T00Z_MSC_GDPS_WindU_IsbL-0050_LatLon0.15_PT138H.grib2 2026-05-07 04:35 761K
20260507T00Z_MSC_GDPS_WindU_IsbL-0100_LatLon0.15_PT138H.grib2 2026-05-07 04:35 928K
20260507T00Z_MSC_GDPS_WindU_IsbL-0150_LatLon0.15_PT138H.grib2 2026-05-07 04:35 1.0M
20260507T00Z_MSC_GDPS_WindU_IsbL-0175_LatLon0.15_PT138H.grib2 2026-05-07 04:35 812K
20260507T00Z_MSC_GDPS_WindU_IsbL-0200_LatLon0.15_PT138H.grib2 2026-05-07 04:35 846K
20260507T00Z_MSC_GDPS_WindU_IsbL-0225_LatLon0.15_PT138H.grib2 2026-05-07 04:35 859K
20260507T00Z_MSC_GDPS_WindU_IsbL-0250_LatLon0.15_PT138H.grib2 2026-05-07 04:35 862K
20260507T00Z_MSC_GDPS_WindU_IsbL-0275_LatLon0.15_PT138H.grib2 2026-05-07 04:35 889K
20260507T00Z_MSC_GDPS_WindU_IsbL-0300_LatLon0.15_PT138H.grib2 2026-05-07 04:35 881K
20260507T00Z_MSC_GDPS_WindU_IsbL-0350_LatLon0.15_PT138H.grib2 2026-05-07 04:35 894K
20260507T00Z_MSC_GDPS_WindU_IsbL-0400_LatLon0.15_PT138H.grib2 2026-05-07 04:35 1.1M
20260507T00Z_MSC_GDPS_WindU_IsbL-0450_LatLon0.15_PT138H.grib2 2026-05-07 04:35 1.1M
20260507T00Z_MSC_GDPS_WindU_IsbL-0500_LatLon0.15_PT138H.grib2 2026-05-07 04:35 1.1M
20260507T00Z_MSC_GDPS_WindU_IsbL-0550_LatLon0.15_PT138H.grib2 2026-05-07 04:35 1.1M
20260507T00Z_MSC_GDPS_WindU_IsbL-0600_LatLon0.15_PT138H.grib2 2026-05-07 04:35 1.2M
20260507T00Z_MSC_GDPS_WindU_IsbL-0650_LatLon0.15_PT138H.grib2 2026-05-07 04:35 1.2M
20260507T00Z_MSC_GDPS_WindU_IsbL-0700_LatLon0.15_PT138H.grib2 2026-05-07 04:35 1.2M
20260507T00Z_MSC_GDPS_WindU_IsbL-0750_LatLon0.15_PT138H.grib2 2026-05-07 04:35 1.3M
20260507T00Z_MSC_GDPS_WindU_IsbL-0800_LatLon0.15_PT138H.grib2 2026-05-07 04:35 1.4M
20260507T00Z_MSC_GDPS_WindU_IsbL-0850_LatLon0.15_PT138H.grib2 2026-05-07 04:35 1.4M
20260507T00Z_MSC_GDPS_WindU_IsbL-0875_LatLon0.15_PT138H.grib2 2026-05-07 04:35 1.5M
20260507T00Z_MSC_GDPS_WindU_IsbL-0900_LatLon0.15_PT138H.grib2 2026-05-07 04:35 1.5M
20260507T00Z_MSC_GDPS_WindU_IsbL-0925_LatLon0.15_PT138H.grib2 2026-05-07 04:35 1.5M
20260507T00Z_MSC_GDPS_WindU_IsbL-0950_LatLon0.15_PT138H.grib2 2026-05-07 04:35 1.4M
20260507T00Z_MSC_GDPS_WindU_IsbL-0970_LatLon0.15_PT138H.grib2 2026-05-07 04:35 1.4M
20260507T00Z_MSC_GDPS_WindU_IsbL-0985_LatLon0.15_PT138H.grib2 2026-05-07 04:35 1.4M
20260507T00Z_MSC_GDPS_WindU_IsbL-1000_LatLon0.15_PT138H.grib2 2026-05-07 04:35 1.4M
20260507T00Z_MSC_GDPS_WindU_IsbL-1015_LatLon0.15_PT138H.grib2 2026-05-07 04:35 1.3M
20260507T00Z_MSC_GDPS_WindV_AGL-10m_LatLon0.15_PT138H.grib2 2026-05-07 04:35 1.3M
20260507T00Z_MSC_GDPS_WindV_AGL-120m_LatLon0.15_PT138H.grib2 2026-05-07 04:35 1.0M
20260507T00Z_MSC_GDPS_WindV_AGL-40m_LatLon0.15_PT138H.grib2 2026-05-07 04:35 973K
20260507T00Z_MSC_GDPS_WindV_AGL-80m_LatLon0.15_PT138H.grib2 2026-05-07 04:35 1.0M
20260507T00Z_MSC_GDPS_WindV_IsbL-0001_LatLon0.15_PT138H.grib2 2026-05-07 04:35 725K
20260507T00Z_MSC_GDPS_WindV_IsbL-0005_LatLon0.15_PT138H.grib2 2026-05-07 04:35 787K
20260507T00Z_MSC_GDPS_WindV_IsbL-0010_LatLon0.15_PT138H.grib2 2026-05-07 04:35 808K
20260507T00Z_MSC_GDPS_WindV_IsbL-0020_LatLon0.15_PT138H.grib2 2026-05-07 04:35 854K
20260507T00Z_MSC_GDPS_WindV_IsbL-0030_LatLon0.15_PT138H.grib2 2026-05-07 04:35 860K
20260507T00Z_MSC_GDPS_WindV_IsbL-0050_LatLon0.15_PT138H.grib2 2026-05-07 04:35 896K
20260507T00Z_MSC_GDPS_WindV_IsbL-0100_LatLon0.15_PT138H.grib2 2026-05-07 04:35 860K
20260507T00Z_MSC_GDPS_WindV_IsbL-0150_LatLon0.15_PT138H.grib2 2026-05-07 04:35 1.0M
20260507T00Z_MSC_GDPS_WindV_IsbL-0175_LatLon0.15_PT138H.grib2 2026-05-07 04:35 1.0M
20260507T00Z_MSC_GDPS_WindV_IsbL-0200_LatLon0.15_PT138H.grib2 2026-05-07 04:35 845K
20260507T00Z_MSC_GDPS_WindV_IsbL-0225_LatLon0.15_PT138H.grib2 2026-05-07 04:35 856K
20260507T00Z_MSC_GDPS_WindV_IsbL-0250_LatLon0.15_PT138H.grib2 2026-05-07 04:35 856K
20260507T00Z_MSC_GDPS_WindV_IsbL-0275_LatLon0.15_PT138H.grib2 2026-05-07 04:35 885K
20260507T00Z_MSC_GDPS_WindV_IsbL-0300_LatLon0.15_PT138H.grib2 2026-05-07 04:35 935K
20260507T00Z_MSC_GDPS_WindV_IsbL-0350_LatLon0.15_PT138H.grib2 2026-05-07 04:35 947K
20260507T00Z_MSC_GDPS_WindV_IsbL-0400_LatLon0.15_PT138H.grib2 2026-05-07 04:35 947K
20260507T00Z_MSC_GDPS_WindV_IsbL-0450_LatLon0.15_PT138H.grib2 2026-05-07 04:35 889K
20260507T00Z_MSC_GDPS_WindV_IsbL-0500_LatLon0.15_PT138H.grib2 2026-05-07 04:35 896K
20260507T00Z_MSC_GDPS_WindV_IsbL-0550_LatLon0.15_PT138H.grib2 2026-05-07 04:35 905K
20260507T00Z_MSC_GDPS_WindV_IsbL-0600_LatLon0.15_PT138H.grib2 2026-05-07 04:35 1.1M
20260507T00Z_MSC_GDPS_WindV_IsbL-0650_LatLon0.15_PT138H.grib2 2026-05-07 04:35 1.2M
20260507T00Z_MSC_GDPS_WindV_IsbL-0700_LatLon0.15_PT138H.grib2 2026-05-07 04:35 1.2M
20260507T00Z_MSC_GDPS_WindV_IsbL-0750_LatLon0.15_PT138H.grib2 2026-05-07 04:35 1.3M
20260507T00Z_MSC_GDPS_WindV_IsbL-0800_LatLon0.15_PT138H.grib2 2026-05-07 04:35 1.4M
20260507T00Z_MSC_GDPS_WindV_IsbL-0850_LatLon0.15_PT138H.grib2 2026-05-07 04:35 1.4M
20260507T00Z_MSC_GDPS_WindV_IsbL-0875_LatLon0.15_PT138H.grib2 2026-05-07 04:35 1.4M
20260507T00Z_MSC_GDPS_WindV_IsbL-0900_LatLon0.15_PT138H.grib2 2026-05-07 04:35 1.5M
20260507T00Z_MSC_GDPS_WindV_IsbL-0925_LatLon0.15_PT138H.grib2 2026-05-07 04:35 1.5M
20260507T00Z_MSC_GDPS_WindV_IsbL-0950_LatLon0.15_PT138H.grib2 2026-05-07 04:35 1.4M
20260507T00Z_MSC_GDPS_WindV_IsbL-0970_LatLon0.15_PT138H.grib2 2026-05-07 04:35 1.4M
20260507T00Z_MSC_GDPS_WindV_IsbL-0985_LatLon0.15_PT138H.grib2 2026-05-07 04:35 1.4M
20260507T00Z_MSC_GDPS_WindV_IsbL-1000_LatLon0.15_PT138H.grib2 2026-05-07 04:35 1.4M
20260507T00Z_MSC_GDPS_WindV_IsbL-1015_LatLon0.15_PT138H.grib2 2026-05-07 04:35 1.3M